logo tempoitalia

Diretta Meteo Moscow-Sheremet'Ye, Russialunedì 31 agosto ore 07:30

Mappa
Sereno 17 °C Molto Nuvoloso 24 Ore: T.min 15 T.max 23
Ponente Ovest Km/h 10.8 Punto di rugiada: 15 °C Umidità: 88% Visibilità: 10 Km
Il sole sorge alle: 05:32 Il sole tramonta alle: 19:28
31 Agosto 2026 07:30 tempo osservato: Molto Nuvoloso Molto Nuvoloso 17 88 1018 vento: Nord O 10.8
31 Agosto 2026 07:00 tempo osservato: Molto Nuvoloso Molto Nuvoloso 16 87 1017 vento: Nord O 10.8
31 Agosto 2026 06:30 tempo osservato: Molto Nuvoloso Molto Nuvoloso 15 100 1017 vento: Nord O/SO 10.8
31 Agosto 2026 06:00 tempo osservato: Foschia Foschia 15 93 1017 vento: Nord O/SO 10.8
31 Agosto 2026 05:42 tempo osservato: Coperto Coperto 15 93 1017 vento: Nord O/SO 10.8
31 Agosto 2026 05:30 tempo osservato: Foschia Foschia 15 93 1017 vento: Nord O/SO 10.8
31 Agosto 2026 05:00 tempo osservato: Coperto Coperto 15 100 1017 vento: Nord O/SO 10.8
31 Agosto 2026 04:51 tempo osservato: Coperto Coperto 15 100 1017 vento: Nord O/SO 10.8
31 Agosto 2026 04:30 tempo osservato: Foschia Foschia 15 100 1017 vento: Nord O/SO 10.8
31 Agosto 2026 04:15 tempo osservato: Foschia Foschia 15 93 1017 vento: Nord O/SO 10.8
31 Agosto 2026 04:10 tempo osservato: Foschia Foschia 15 93 1017 vento: Nord O/SO 10.8
31 Agosto 2026 04:00 tempo osservato: Foschia Foschia 15 93 1017 vento: Nord O/SO 10.8
31 Agosto 2026 03:30 tempo osservato: Coperto Coperto 15 93 1017 vento: Nord N 7.2
31 Agosto 2026 03:00 tempo osservato: Coperto Coperto 16 93 1017 vento: Nord O 10.8
31 Agosto 2026 02:30 tempo osservato: Coperto Coperto 16 93 1018 vento: Nord N 7.2
31 Agosto 2026 02:00 tempo osservato: Coperto Coperto 16 93 1017 vento: Nord N 7.2
31 Agosto 2026 01:30 tempo osservato: Molto Nuvoloso Molto Nuvoloso 15 100 1017 vento: Nord N 7.2
31 Agosto 2026 01:00 tempo osservato: Pioggia Pioggia 15 93 1017 vento: Nord N 7.2
31 Agosto 2026 00:31 tempo osservato: Pioggia Pioggia 16 87 1018 vento: Nord S 10.8
31 Agosto 2026 00:30 tempo osservato: Pioggia Pioggia 16 87 1018 vento: Nord S 10.8
31 Agosto 2026 00:00 tempo osservato: Molto Nuvoloso Molto Nuvoloso 16 87 1018 vento: Nord N 7.2
30 Agosto 2026 23:30 tempo osservato: Molto Nuvoloso Molto Nuvoloso 15 93 1018 vento: Nord N 7.2
30 Agosto 2026 23:00 tempo osservato: Pioggia Pioggia 16 87 1018 vento: Nord N 7.2
30 Agosto 2026 22:30 tempo osservato: Pioggia Pioggia 16 87 1018 vento: Nord S/SO 10.8
30 Agosto 2026 22:00 tempo osservato: Pioggia Pioggia 16 87 1018 vento: Nord S/SO 10.8
30 Agosto 2026 21:30 tempo osservato: Pioggia Pioggia 16 87 1018 vento: Nord S/SO 14.4
30 Agosto 2026 21:00 tempo osservato: Pioggia Pioggia 16 87 1018 vento: Nord S 14.4
30 Agosto 2026 20:30 tempo osservato: Pioggia Pioggia 16 87 1018 vento: Nord S 10.8
30 Agosto 2026 20:00 tempo osservato: Pioggia Pioggia 16 87 1018 vento: Nord S 10.8
30 Agosto 2026 19:30 tempo osservato: Pioggia Pioggia 16 87 1018 vento: Nord S 14.4
30 Agosto 2026 19:00 tempo osservato: Pioggia Pioggia 16 87 1018 vento: Nord S 14.4
30 Agosto 2026 18:30 tempo osservato: Pioggia Pioggia 16 87 1018 vento: Nord S 14.4
30 Agosto 2026 18:00 tempo osservato: Pioggia Pioggia 17 82 1018 vento: Nord S 18
30 Agosto 2026 17:30 tempo osservato: Pioggia Pioggia 18 72 1019 vento: Nord S 21.6
30 Agosto 2026 17:00 tempo osservato: Pioggia Pioggia 18 72 1019 vento: Nord S 18
30 Agosto 2026 16:30 tempo osservato: Pioggia Pioggia 19 63 1019 vento: Nord S 25.2
30 Agosto 2026 16:00 tempo osservato: Pioggia Pioggia 20 56 1019 vento: Nord S 18
30 Agosto 2026 15:30 tempo osservato: Nuvoloso Nuvoloso 21 49 1019 vento: Nord S/SO 18
30 Agosto 2026 15:00 tempo osservato: Sereno Sereno 21 49 1019 vento: Nord S/SE 21.6
30 Agosto 2026 14:30 tempo osservato: Sereno Sereno 21 49 1019 vento: Nord S 18
30 Agosto 2026 14:00 tempo osservato: Sereno Sereno 21 49 1019 vento: Nord S 21.6
30 Agosto 2026 13:52 tempo osservato: Sereno Sereno 21 49 1019 vento: Nord S 21.6
30 Agosto 2026 13:30 tempo osservato: Sereno Sereno 22 46 1020 vento: Nord S 21.6
30 Agosto 2026 13:22 tempo osservato: Sereno Sereno 23 43 1020 vento: Nord S 25.2
30 Agosto 2026 13:17 tempo osservato: Sereno Sereno 23 43 1020 vento: Nord S 21.6
30 Agosto 2026 13:00 tempo osservato: Sereno Sereno 22 46 1020 vento: Nord S/SE 28.8
30 Agosto 2026 12:47 tempo osservato: Sereno Sereno 22 46 1020 vento: Nord S 21.6
30 Agosto 2026 12:30 tempo osservato: Sereno Sereno 22 46 1020 vento: Nord S/SE 25.2
30 Agosto 2026 12:00 tempo osservato: Sereno Sereno 22 43 1020 vento: Nord S/SE 25.2
30 Agosto 2026 11:30 tempo osservato: Sereno Sereno 21 46 1020 vento: Nord S 21.6
30 Agosto 2026 11:00 tempo osservato: Sereno Sereno 21 43 1020 vento: Nord S/SE 21.6
30 Agosto 2026 10:30 tempo osservato: Sereno Sereno 20 45 1021 vento: Nord S 18
30 Agosto 2026 10:26 tempo osservato: Sereno Sereno 21 43 1021 vento: Nord S 18
30 Agosto 2026 10:00 tempo osservato: Sereno Sereno 19 48 1021 vento: Nord S 18
30 Agosto 2026 09:30 tempo osservato: Sereno Sereno 19 45 1021 vento: Nord S 14.4
30 Agosto 2026 09:00 tempo osservato: Sereno Sereno 18 48 1021 vento: Nord S 14.4
30 Agosto 2026 08:30 tempo osservato: Sereno Sereno 17 51 1021 vento: Nord S/SE 14.4
30 Agosto 2026 08:00 tempo osservato: Sereno Sereno 16 58 1022 vento: Nord N 7.2